Location: French River
(46.0362°N, 80.5373°W)
Time: 14:33:01
(UTC-04:00)

ISS - Visible Passes

Search period start: 06 July 2020 00:00
Search period end: 16 July 2020 00:00
Orbit: 417 x 421 km, 51.6° (Epoch: 06 July)

Date Brightness Start Highest point End Pass type
(mag) Time Alt. Az. Time Alt. Az. Time Alt. Az.
06 Jul -1.8 02:02:42 21° E 02:02:42 21° E 02:04:09 10° ENE visible
06 Jul -3.1 03:35:38 19° W 03:37:49 51° NNW 03:41:08 10° ENE visible
07 Jul -3.6 02:49:28 51° W 02:50:09 71° NNW 02:53:31 10° ENE visible
07 Jul -2.0 04:24:16 10° WNW 04:27:19 31° N 04:30:22 10° ENE visible
08 Jul -3.2 02:03:16 51° ENE 02:03:16 51° ENE 02:05:53 10° ENE visible
08 Jul -2.2 03:36:26 10° WNW 03:39:33 34° N 03:42:40 10° ENE visible
09 Jul -1.7 01:16:59 20° ENE 01:16:59 20° ENE 01:18:12 10° ENE visible
09 Jul -2.5 02:49:53 20° WNW 02:51:48 40° NNW 02:55:00 10° ENE visible
09 Jul -1.8 04:26:04 10° WNW 04:29:07 30° N 04:32:10 10° ENE visible
10 Jul -3.0 02:03:31 45° WNW 02:04:04 52° NNW 02:07:22 10° ENE visible
10 Jul -1.8 03:38:18 10° WNW 03:41:19 30° N 03:44:21 10° ENE visible
11 Jul -3.1 01:17:00 52° NE 01:17:00 52° NE 01:19:43 10° ENE visible
11 Jul -1.9 02:50:28 10° WNW 02:53:31 31° N 02:56:33 10° ENE visible
11 Jul -2.2 04:27:38 10° WNW 04:30:50 39° NNE 04:34:01 10° E visible
12 Jul -2.3 00:30:15 29° ENE 00:30:15 29° ENE 00:32:03 10° ENE visible
12 Jul -2.1 02:03:07 13° WNW 02:05:42 34° N 02:08:49 10° ENE visible
12 Jul -1.9 03:39:57 10° WNW 03:43:03 33° N 03:46:09 10° ENE visible
12 Jul -2.1 23:42:51 23° E 23:42:51 23° E 23:44:19 10° ENE visible
13 Jul -2.4 01:15:38 17° W 01:17:54 40° NNW 01:21:07 10° ENE visible
13 Jul -1.8 02:52:11 10° WNW 02:55:14 30° N 02:58:16 10° ENE visible
13 Jul -3.4 04:29:03 10° WNW 04:32:24 67° NNE 04:35:45 10° ESE visible
13 Jul -3.1 22:50:25 10° SSW 22:53:26 32° SE 22:56:29 10° ENE visible
14 Jul -3.0 00:26:50 10° W 00:30:08 52° NNW 00:33:26 10° ENE visible
14 Jul -1.7 02:04:22 10° WNW 02:07:24 30° N 02:10:24 10° ENE visible
14 Jul -2.8 03:41:22 10° WNW 03:44:39 49° NNE 03:47:56 10° E visible
14 Jul -2.4 22:03:19 10° S 22:05:53 20° SE 22:08:27 10° E visible
14 Jul -3.6 23:39:02 10° WSW 23:42:23 72° NNW 23:45:45 10° ENE visible
15 Jul -1.8 01:16:29 10° WNW 01:19:32 31° N 01:22:35 10° ENE visible
15 Jul -2.3 02:53:40 10° WNW 02:56:52 39° NNE 03:00:03 10° E visible
15 Jul -3.7 04:30:27 10° WNW 04:33:46 55° SW 04:37:03 10° SE visible
15 Jul -3.9 22:51:19 10° SW 22:54:40 78° SSE 22:58:02 10° ENE visible
